星链-3520 (STARLINK-3520 )

导读 | 豆包AI

STARLINK-3520是美国太空探索技术公司(SpaceX)星链(Starlink)星座中的一颗低轨通信卫星,于2022年2月21日发射升空。星链星座旨在为全球提供宽带互联网服务,该卫星采用平板设计,配备太阳电池阵与氪工质霍尔推进器,具备自主避撞能力,设计寿命5至7年,退役后会再入大气层销毁。

Basic Information
目录编号:
51741
目录名称:
STARLINK-3520
国际标识:
2022-016AD
轨道中心:
EARTH
卫星名称:
星链-3520
卫星全名:
星链-3520 (STARLINK-3520 )
卫星状态:
在轨 (已飞行1530 天)
发射日期:
2022-02-21 UTC
国别 :
美国 (US)
星等 :
--
Orbit Information
数据来源 国际轨道数据 AOE轨道数据
星历时间 2026-04-30T10:39:14+0800
23小时前
查看轨道信息
2026-04-24T14:00:00+0800
6天前
查看轨道信息
半长轴 6917.881km 6917.88km
偏心率 0.0001419 0.0000307
轨道倾角 53.217° 53.224°
近地点辐角 78.901° 114.626°
升交点赤经 88.293° 114.597°
平近点角 281.214° 74.558°
近地点 538.762km 539.53km
远地点 540.726km 539.956km
周期 95.438分钟 95.438分钟
每日圈数 15.088399 15.088404
Detailed Information
固有亮度:
5
最大亮度:
2.5
卫星平台:
Starlink v1.5
覆盖范围:
全球
运营商:
太空探索技术公司
运营商所在国:
美国
制造商(研发单位):
太空探索技术公司
制造商所在国:
美国
使用方式:
暂无
Satellite Introduction
星链(Starlink)计划是由太空探索技术公司(SpaceX)提出的一个巨型低轨卫星互联网星座项目,计划在2019年至2024年间在太空搭建由约1.2万颗卫星组成的“星链”网络,其中1584颗将部署在地球上空550千米处的近地轨道,并从2020年开始工作。该卫星仍在工作。
2D Orbit Map
3D Orbit Map
Orbit Altitude Analysis Chart
Orbit Inclination Analysis Chart
Orbit Comprehensive Analysis Chart
View Comprehensive Chart